Weather History for KJSV - February, 2014

Change the Weather History Date:

Thursday, February 20, 2014

  Actual Average (KFSM) Record (KFSM)
Temperature  
Mean Temperature 55 °F 46 °F  
Max Temperature 71 °F 57 °F 81 °F (1981)
Min Temperature 39 °F 35 °F 12 °F (1921)
Degree Days  
Heating Degree Days 10 19  
Month to date heating degree days 439  
Since 1 July heating degree days 2530  
Growing Degree Days 5 (Base 50)    
Moisture  
Dew Point 41 °F    
Average Humidity 58    
Maximum Humidity 77    
Minimum Humidity 33    
Precipitation  
Precipitation 0.00 in 0.10 in 2.54 in (1945)
Month to date precipitation 1.93  
Year to date precipitation 4.74  
Sea Level Pressure  
Sea Level Pressure 29.78 in    
Wind  
Wind Speed 12 mph (WSW)    
Max Wind Speed 32 mph    
Max Gust Speed 39 mph    
Visibility 10 miles    
Events      
T = Trace of Precipitation, MM = Missing Value Source: NWS Daily Summary

Daily Weather History Graph

Daily Weather History Graph

Search for Another Location

Airport or City:

Trip Planner

Search our weather history database for the weather conditions in past years. The results will help you decide how hot, cold, wet, or windy it might be!

Date:

Astronomy

Feb. 20, 2014 Rise Set
Actual Time 7:00 AM CST 6:06 PM CST
Civil Twilight 6:34 AM CST 6:32 PM CST
Nautical Twilight 6:04 AM CST 7:01 PM CST
Astronomical Twilight 5:35 AM CST 7:31 PM CST
Moon 11:47 PM CST (2/20) 9:56 AM CST (2/20)
Length of Visible Light 11h 57m
Length of Day
11h 06m
Waning Gibbous, 70% of the Moon is Illuminated
Feb 20
Waning Gibbous
Feb 22
Last Quarter
Mar 1
New
Mar 8
First Quarter
Mar 16
Full

Hourly Weather History & Observations

Time (CST) Temp. Windchill Dew Point Humidity Pressure Visibility Wind Dir Wind Speed Gust Speed Precip Events Conditions
12:35 AM 60.8 °F - 53.6 °F 77% 29.63 in 10.0 mi ESE 6.9 mph - N/A   Overcast
1:15 AM 60.8 °F - 53.6 °F 77% 29.61 in 10.0 mi SE 6.9 mph - N/A   Overcast
1:35 AM 60.8 °F - 53.6 °F 77% 29.60 in 10.0 mi SE 5.8 mph - N/A   Overcast
1:55 AM 60.8 °F - 53.6 °F 77% 29.59 in 10.0 mi ESE 5.8 mph - N/A   Overcast
2:15 AM 64.4 °F - 55.4 °F 73% 29.59 in 10.0 mi SSE 8.1 mph - N/A   Overcast
2:35 AM 64.4 °F - 55.4 °F 73% 29.58 in 10.0 mi SSE 8.1 mph - N/A   Overcast
2:55 AM 66.2 °F - 57.2 °F 73% 29.58 in 10.0 mi South 11.5 mph 17.3 mph N/A   Overcast
3:55 AM 68.0 °F - 57.2 °F 68% 29.55 in 10.0 mi South 15.0 mph 20.7 mph N/A   Overcast
4:15 AM 68.0 °F - 57.2 °F 68% 29.54 in 10.0 mi South 12.7 mph 20.7 mph N/A   Overcast
4:35 AM 66.2 °F - 57.2 °F 73% 29.54 in 10.0 mi South 12.7 mph 21.9 mph N/A   Overcast
5:15 AM 66.2 °F - 57.2 °F 73% 29.53 in 10.0 mi South 16.1 mph 25.3 mph N/A   Overcast
6:15 AM 64.4 °F - 57.2 °F 77% 29.52 in 10.0 mi South 13.8 mph 19.6 mph N/A   Overcast
6:55 AM 66.2 °F - 57.2 °F 73% 29.52 in 10.0 mi South 11.5 mph 23.0 mph N/A   Overcast
8:15 AM 68.0 °F - 55.4 °F 64% 29.54 in 10.0 mi SSW 11.5 mph 20.7 mph N/A   Scattered Clouds
8:55 AM 68.0 °F - 55.4 °F 64% 29.55 in 10.0 mi SSW 16.1 mph 26.5 mph N/A   Clear
9:15 AM 68.0 °F - 55.4 °F 64% 29.56 in 10.0 mi SW 21.9 mph 26.5 mph N/A   Scattered Clouds
9:35 AM 68.0 °F - 55.4 °F 64% 29.57 in 10.0 mi SW 20.7 mph 27.6 mph N/A   Scattered Clouds
9:55 AM 69.8 °F - 55.4 °F 60% 29.58 in 10.0 mi SW 23.0 mph 32.2 mph N/A   Scattered Clouds
10:15 AM 71.6 °F - 53.6 °F 53% 29.59 in 10.0 mi SW 26.5 mph 39.1 mph N/A   Scattered Clouds
10:35 AM 71.6 °F - 51.8 °F 50% 29.60 in 10.0 mi WSW 24.2 mph 35.7 mph N/A   Clear
10:55 AM 71.6 °F - 41.0 °F 33% 29.63 in 10.0 mi West 32.2 mph 39.1 mph N/A   Clear
11:55 AM 64.4 °F - 35.6 °F 34% 29.72 in 10.0 mi WNW 28.8 mph 38.0 mph N/A   Clear
12:15 PM 62.6 °F - 35.6 °F 37% 29.74 in 10.0 mi WNW 27.6 mph 36.8 mph N/A   Clear
12:35 PM 60.8 °F - 37.4 °F 42% 29.76 in 10.0 mi WNW 25.3 mph 33.4 mph N/A   Clear
1:35 PM 59.0 °F - 33.8 °F 39% 29.82 in 10.0 mi West 27.6 mph 33.4 mph N/A   Scattered Clouds
1:55 PM 55.4 °F - 33.8 °F 44% 29.83 in 10.0 mi WNW 25.3 mph 35.7 mph N/A   Mostly Cloudy
2:15 PM 57.2 °F - 33.8 °F 41% 29.84 in 10.0 mi NW 21.9 mph 32.2 mph N/A   Mostly Cloudy
2:35 PM 55.4 °F - 33.8 °F 44% 29.85 in 10.0 mi WNW 21.9 mph 28.8 mph N/A   Mostly Cloudy
5:15 PM 53.6 °F - 32.0 °F 44% 29.92 in 10.0 mi NNW 18.4 mph 23.0 mph N/A   Scattered Clouds
5:35 PM 51.8 °F - 32.0 °F 47% 29.93 in 10.0 mi NW 16.1 mph - N/A   Clear
5:55 PM 51.8 °F - 30.2 °F 44% 29.95 in 10.0 mi NNW 8.1 mph - N/A   Clear
6:15 PM 50.0 °F - 28.4 °F 43% 29.96 in 10.0 mi NW 5.8 mph - N/A   Clear
6:35 PM 46.4 °F - 28.4 °F 50% 29.97 in 10.0 mi Calm Calm - N/A   Clear
6:55 PM 44.6 °F - 28.4 °F 53% 29.97 in 10.0 mi Calm Calm - N/A   Clear
7:15 PM 42.8 °F 41.1 °F 30.2 °F 61% 29.98 in 10.0 mi SW 3.5 mph - N/A   Clear
7:35 PM 41.0 °F 39.0 °F 30.2 °F 65% 29.98 in 10.0 mi SW 3.5 mph - N/A   Clear
7:55 PM 41.0 °F - 30.2 °F 65% 29.99 in 10.0 mi Calm Calm - N/A   Clear
8:15 PM 42.8 °F 40.1 °F 30.2 °F 61% 30.00 in 10.0 mi West 4.6 mph - N/A   Clear
8:35 PM 42.8 °F 40.1 °F 30.2 °F 61% 30.01 in 10.0 mi West 4.6 mph - N/A   Clear
8:55 PM 42.8 °F 39.3 °F 32.0 °F 66% 30.01 in 10.0 mi West 5.8 mph - N/A   Clear
9:10 PM 42.8 °F 39.3 °F 30.2 °F 61% 30.01 in 10.0 mi West 5.8 mph - N/A   Clear
9:35 PM 42.8 °F 40.1 °F 28.4 °F 57% 30.01 in 10.0 mi West 4.6 mph - N/A   Clear
9:55 PM 39.2 °F 37.0 °F 28.4 °F 65% 30.01 in 10.0 mi West 3.5 mph - N/A   Clear
10:15 PM 41.0 °F 38.0 °F 26.6 °F 57% 30.02 in 10.0 mi West 4.6 mph - N/A   Clear
10:35 PM 41.0 °F 38.0 °F 28.4 °F 61% 30.02 in 10.0 mi West 4.6 mph - N/A   Clear
10:55 PM 41.0 °F 38.0 °F 26.6 °F 57% 30.03 in 10.0 mi West 4.6 mph - N/A   Clear
11:15 PM 41.0 °F 36.4 °F 24.8 °F 53% 30.04 in 10.0 mi West 6.9 mph - N/A   Clear
11:35 PM 41.0 °F 37.1 °F 23.0 °F 49% 30.04 in 10.0 mi West 5.8 mph - N/A   Clear
11:55 PM 39.2 °F 37.0 °F 23.0 °F 52% 30.04 in 10.0 mi West 3.5 mph - N/A   Clear